Regional Weather Roundup
Issued by NWS State College, PA

Home | Current Version | Previous Version | Text Only | Print | Product List | Glossary Off
Versions: 1 2 3 4 5 6 7 8 9 10 11 12 13 14 15 16 17 18 19 20 21 22 23 24 25 26 27 28 29 30 31 32 33 34 35 36 37 38 39 40 41 42 43 44 45 46 47 48 49 50

000
ASUS41 KCTP 010503
RWRCTP

REGIONAL WEATHER ROUNDUP
NATIONAL WEATHER SERVICE STATE COLLEGE PA
100 AM EDT TUE SEP 01 2015

Note: "fair" indicates few or no clouds below 12,000 feet with no
significant weather and/or obstructions to visibility.

* = STATION THAT DOES NOT REPORT PRECIPITATION /E.G. RAIN...SNOW...ETC/
    THUNDER OR FOG.

PAZ002>004-007>009-013>016-020>023-029>032-010600-
WESTERN PENNSYLVANIA

CITY           SKY/WX    TMP DP  RH WIND       PRES   REMARKS
ERIE           CLEAR     67  62  84 S6        30.08S
MEADVILLE      CLEAR     67  63  87 CALM      30.12S
FRANKLIN*      CLEAR     64  63  94 CALM      30.14S
NEW CASTLE     FAIR      68  68 100 CALM      30.12R FOG
BEAVER COUNTY  NOT AVBL
BUTLER*        CLEAR     66  64  94 CALM      30.13S
PITTSBURGH INT CLEAR     71  66  84 W3        30.11R
PITTSBURGH     CLEAR     74  62  66 CALM      30.10S
INDIANA*       PTCLDY    66  64  94 CALM      30.15R
LATROBE        NOT AVBL
WASHINGTON CO* CLEAR     64  63  94 CALM      30.12S
$$

PAZ004>006-010>012-017>019-024>028-033>037-041-042-045-046-049>053-010600-
CENTRAL PENNSYLVANIA

CITY           SKY/WX    TMP DP  RH WIND       PRES   REMARKS
BRADFORD       FOG       57  55  93 CALM      30.14S VSB 1/4
DUBOIS         CLEAR     68  65  90 CALM      30.13R FOG
CLEARFIELD     CLEAR     66  64  93 CALM      30.12S
JOHNSTOWN      CLEAR     68  61  78 SW6       30.16R
ALTOONA        CLEAR     66  63  90 S3        30.12S
STATE COLLEGE  CLEAR     70  66  87 CALM      30.10R
WILLIAMSPORT   CLEAR     70  68  93 W3        30.04R
SELINSGROVE    PTCLDY    68  67  96 NW3       30.05R FOG
FT INDIANTOWN  CLEAR     68  67  97 CALM      30.05R
CAPITAL CITY   CLEAR     72  66  81 CALM      30.04S
HARRISBURG     PTCLDY    72  68  87 CALM      30.04R
YORK           NOT AVBL
$$

PAZ038>040-043-044-047-048-054-055-060>062-067>071-010600-
EASTERN PENNSYLVANIA

CITY           SKY/WX    TMP DP  RH WIND       PRES   REMARKS
SCRANTON       PTCLDY    71  66  84 E6        30.06R
MOUNT POCONO   CLEAR     64  62  93 NW6       30.10S FOG
ALLENTOWN      CLEAR     74  68  81 SW3       30.03R
QUAKERTOWN*    CLEAR     70  68  94 CALM      30.05S
READING        CLEAR     75  67  76 S3        30.03S
LANCASTER      CLEAR     71  67  87 CALM      30.05R
COATESVILLE    CLEAR     73  70  88 W6        30.07S
POTTSTOWN      CLEAR     74  70  87 S5        30.05S
BLUE BELL      CLEAR     72  68  88 CALM      30.03S
DOYLESTOWN     CLEAR     73  68  84 SW5       30.03S
WILLOW GROVE   NOT AVBL
NORTH PHILA    CLEAR     79  65  62 SW10      30.04S
PHILADELPHIA   CLEAR     77  67  71 SW12      30.04S
$$


USA.gov is the U.S. government's official web portal to all federal, state and local government web resources and services.